[[{"header":{"parameterUnit":"m.s-1","parameterCategory":1,"la1":30.2991,"la2":30.254,"lo1":-89.0895,"lo2":-89.0444,"dy":0.0017,"dx":0.0017,"nx":28,"ny":28,"refTime":"2025-02-27T03:00:00:Z","depth":0,"parameterNumber":2,"parameterNumberName":"U-component_of_WINDS"},"data":[0,0,0,0,0,0,0,0,0,0,0,0,0,0,0,0,0,0,0,0,0,0,0,0,0,0,0,0,0,0,0,0,0,0,0,0,0,0,0,0,0,0,0,0,0,0,0,0,0,0,0,0,0,0,0,0,0,0,-0.243,-0.2429,0,-0.2311,-0.231,-0.2309,-0.224,-0.224,-0.224,-0.224,-0.2119,-0.2116,-0.2113,0,0,0,0,0,0,0,0,0,0,0,0,0,-0.2599,-0.2596,-0.243,-0.2429,-0.2427,-0.2312,-0.231,-0.2308,-0.224,-0.224,-0.224,-0.2239,-0.2119,-0.2116,-0.2112,0,0,0,0,0,0,0,0,0,0,0,0,0,-0.2508,-0.2595,-0.2431,-0.2379,-0.2374,-0.2312,-0.231,-0.2308,-0.224,-0.224,-0.224,-0.2239,-0.2121,-0.2116,-0.2112,-0.2092,0,0,-0.2098,-0.2096,0,0,0,0,0,0,0,0,-0.2513,-0.2502,-0.2388,-0.2383,-0.2376,-0.229,-0.2325,-0.2236,-0.2241,-0.2291,-0.224,-0.2239,-0.2176,-0.2167,-0.2146,-0.2086,-0.2081,-0.2098,-0.2095,-0.2093,-0.2092,0,0,0,0,0,0,0,-0.2519,-0.2506,-0.2383,-0.2387,-0.2379,-0.2363,-0.2349,-0.2308,-0.2237,-0.2287,-0.2281,-0.2268,-0.2173,-0.215,-0.2142,-0.2079,-0.2098,-0.2094,-0.2091,-0.2089,-0.1998,-0.1998,0,0,0,0,0,0,-0.2534,-0.2512,-0.2387,-0.238,-0.2445,-0.236,-0.2345,-0.2318,-0.2237,-0.2225,-0.2269,-0.2265,-0.2158,-0.2148,-0.2138,-0.2109,-0.2093,-0.2089,-0.2086,-0.1998,-0.1998,-0.1998,0,0,0,0,0,0,-0.2538,-0.2523,-0.2392,-0.2444,-0.2426,-0.2357,-0.2328,-0.2316,-0.2293,-0.2224,-0.2211,-0.2259,-0.2157,-0.2144,-0.2104,-0.2104,-0.2087,-0.2083,-0.1997,-0.1998,-0.1998,-0.2052,0,0,0,0,0,0,-0.2543,-0.2525,-0.2517,-0.2445,-0.2424,-0.236,-0.2328,-0.2314,-0.2286,-0.2281,-0.2211,-0.2199,-0.2156,-0.2111,-0.2099,-0.2097,-0.2079,-0.1997,-0.1998,-0.1998,-0.205,-0.2054,-0.2057,0,0,0,0,0,-0.2549,-0.2537,-0.2517,-0.2502,-0.2412,-0.236,-0.2348,-0.2299,-0.2286,-0.2277,-0.2233,-0.2201,-0.2106,-0.2107,-0.2094,-0.209,-0.1997,-0.1997,-0.1998,-0.2048,-0.2053,-0.2057,0,0,0,0,0,0,-0.2611,-0.2526,-0.2503,-0.2467,-0.2421,-0.2349,-0.2336,-0.2306,-0.2263,-0.226,-0.22,-0.2185,-0.2151,-0.2116,-0.212,-0.2067,-0.2048,-0.2046,-0.209,-0.2095,-0.2099,-0.2107,-0.2076,0,0,0,0,0,-0.262,-0.2585,-0.2513,-0.2488,-0.2466,-0.2405,-0.2381,-0.2347,-0.2297,-0.2277,-0.223,-0.2183,-0.2142,-0.2117,-0.2075,-0.2045,-0.2028,-0.2035,-0.204,-0.2043,-0.2042,-0.2023,-0.2025,-0.2,-0.2,-0.2,0,0,-0.2639,-0.2589,-0.257,-0.2499,-0.246,-0.2425,-0.2389,-0.2354,-0.2327,-0.2272,-0.2231,-0.2195,-0.2138,-0.2103,-0.2085,-0.2073,-0.2045,-0.2044,-0.2047,-0.2044,-0.2024,-0.2026,-0.2028,-0.2001,-0.2,-0.2,0,0,-0.2656,-0.2614,-0.2589,-0.255,-0.249,-0.245,-0.2444,-0.2376,-0.2349,-0.2307,-0.2265,-0.2233,-0.2164,-0.2126,-0.2097,-0.21,-0.2069,-0.2088,-0.2108,-0.2091,-0.2093,-0.2094,-0.2095,-0.2096,-0.2087,-0.2087,-0.2087,0,-0.2687,-0.2632,-0.2579,-0.2546,-0.2516,-0.2464,-0.2438,-0.2403,-0.2334,-0.2314,-0.2303,-0.2215,-0.2174,-0.2129,-0.2129,-0.2108,-0.2099,-0.2095,-0.2097,-0.2098,-0.2098,-0.2098,-0.2099,-0.209,-0.209,-0.2089,-0.2089,0,-0.2674,-0.2636,-0.2623,-0.2557,-0.2525,-0.2496,-0.2439,-0.2414,-0.2383,-0.2344,-0.2301,-0.225,-0.2197,-0.2184,-0.2153,-0.2134,-0.2129,-0.2108,-0.2087,-0.2104,-0.2103,-0.2103,-0.2094,-0.2093,-0.2092,-0.2091,0,0,-0.2726,-0.263,-0.2626,-0.2596,-0.2526,-0.2497,-0.2465,-0.2413,-0.2393,-0.2347,-0.2319,-0.2262,-0.2242,-0.221,-0.2174,-0.2159,-0.2164,-0.2139,-0.2137,-0.2145,-0.214,-0.2156,-0.2157,-0.2144,-0.2143,-0.2143,-0.2145,0,-0.2732,-0.2672,-0.2624,-0.2582,-0.2547,-0.2498,-0.247,-0.2425,-0.2388,-0.2353,-0.2312,-0.2272,-0.2249,-0.2229,-0.2211,-0.2167,-0.2162,-0.2166,-0.2117,-0.2116,-0.2132,-0.2157,-0.2174,-0.2177,-0.2144,-0.2144,-0.2144,0,-0.2732,-0.2687,-0.2642,-0.2576,-0.256,-0.2536,-0.2484,-0.2452,-0.24,-0.2373,-0.2338,-0.2301,-0.2265,-0.2249,-0.2199,-0.2203,-0.218,-0.2156,-0.2155,-0.2148,-0.2131,-0.215,-0.2177,-0.2178,-0.2143,-0.2143,-0.2143,0,-0.2774,-0.2703,-0.2666,-0.2642,-0.2564,-0.2548,-0.2515,-0.2463,-0.2435,-0.239,-0.2371,-0.2324,-0.2297,-0.2261,-0.2212,-0.2205,-0.2168,-0.2147,-0.2145,-0.2147,-0.2139,-0.2141,-0.2163,-0.2125,-0.2125,-0.2125,-0.2125,0,-0.2786,-0.2761,-0.2684,-0.2662,-0.2632,-0.2577,-0.2549,-0.2511,-0.2465,-0.2435,-0.2389,-0.2362,-0.2299,-0.2264,-0.2226,-0.2191,-0.2179,-0.2157,-0.2147,-0.2161,-0.2164,-0.2145,-0.2143,-0.2126,-0.2125,-0.2125,-0.2125,0,-0.2828,-0.2776,-0.2733,-0.2663,-0.2645,-0.2626,-0.2566,-0.2543,-0.2503,-0.2465,-0.2453,-0.2391,-0.2348,-0.2296,-0.2235,-0.221,-0.2178,-0.2163,-0.2196,-0.219,-0.2191,-0.2191,-0.2202,-0.22,-0.2164,-0.2165,-0.2165,0,-0.2839,-0.2818,-0.2746,-0.2722,-0.269,-0.2653,-0.2624,-0.2569,-0.2541,-0.248,-0.2464,-0.2417,-0.2377,-0.231,-0.226,-0.2213,-0.2197,-0.2204,-0.219,-0.2204,-0.2197,-0.2199,-0.2196,-0.2208,-0.2208,-0.2209,-0.2209,0,-0.2865,-0.284,-0.28,-0.2751,-0.2717,-0.2676,-0.2633,-0.2617,-0.2553,-0.2524,-0.2479,-0.2447,-0.2386,-0.234,-0.2288,-0.2254,-0.2221,-0.2214,-0.2211,-0.2225,-0.2245,-0.2234,-0.2205,-0.2214,-0.2214,-0.2213,-0.2213,-0.2213,-0.2891,-0.287,-0.2816,-0.2773,-0.2734,-0.2695,-0.267,-0.2627,-0.2588,-0.2534,-0.2504,-0.246,-0.2408,-0.2334,-0.2301,-0.2266,-0.2254,-0.225,-0.2249,-0.2249,-0.2253,-0.2251,-0.2256,-0.2256,-0.2256,-0.2256,-0.2256,0,-0.2914,-0.2876,-0.2837,-0.2778,-0.2744,-0.2716,-0.2667,-0.2641,-0.2603,-0.2557,-0.2518,-0.2466,-0.2422,-0.2368,-0.232,-0.2302,-0.2286,-0.2291,-0.2292,-0.2284,-0.2266,-0.2273,-0.2305,-0.2305,-0.2305,-0.2305,-0.2305,-0.2305,-0.2922,-0.2885,-0.2853,-0.2797,-0.276,-0.2716,-0.269,-0.2654,-0.2617,-0.2561,-0.2524,-0.2489,-0.244,-0.2388,-0.2346,-0.2331,-0.2315,-0.2325,-0.2306,-0.229,-0.2286,-0.2282,-0.2288,-0.2322,-0.2322,-0.2327,-0.2327,-0.2327]},{"header":{"parameterUnit":"m.s-1","parameterCategory":1,"la1":30.2991,"la2":30.254,"lo1":-89.0895,"lo2":-89.0444,"dy":0.0017,"dx":0.0017,"nx":28,"ny":28,"refTime":"2025-02-27T03:00:00:Z","depth":0,"parameterNumber":3,"parameterNumberName":"V-component_of_WINDS"},"data":[0,0,0,0,0,0,0,0,0,0,0,0,0,0,0,0,0,0,0,0,0,0,0,0,0,0,0,0,0,0,0,0,0,0,0,0,0,0,0,0,0,0,0,0,0,0,0,0,0,0,0,0,0,0,0,0,0,0,2.5328,2.5328,0,2.5302,2.5302,2.5302,2.526,2.526,2.5259,2.5258,2.5231,2.5231,2.5231,0,0,0,0,0,0,0,0,0,0,0,0,0,2.5343,2.5343,2.5328,2.5328,2.5328,2.5302,2.5302,2.5302,2.526,2.526,2.5259,2.5258,2.5231,2.5231,2.5231,0,0,0,0,0,0,0,0,0,0,0,0,0,2.5329,2.5343,2.5328,2.5304,2.5302,2.5302,2.5302,2.5302,2.5261,2.526,2.5258,2.5257,2.5231,2.5231,2.5231,2.5254,0,0,2.5231,2.5231,0,0,0,0,0,0,0,0,2.5329,2.5328,2.5308,2.5306,2.5303,2.5283,2.5297,2.5286,2.5261,2.5276,2.5258,2.5257,2.525,2.5248,2.5246,2.5252,2.5251,2.5231,2.5231,2.5231,2.5231,0,0,0,0,0,0,0,2.533,2.5329,2.5318,2.5308,2.5305,2.5295,2.5291,2.5295,2.527,2.5275,2.5272,2.5269,2.5248,2.5246,2.5245,2.5251,2.5231,2.5231,2.5231,2.5231,2.5276,2.5277,0,0,0,0,0,0,2.5335,2.533,2.5319,2.5317,2.5314,2.5295,2.5292,2.5291,2.5269,2.5265,2.527,2.5267,2.5246,2.5245,2.5244,2.5269,2.5231,2.5231,2.5231,2.5275,2.5276,2.5278,0,0,0,0,0,0,2.5335,2.5334,2.532,2.5323,2.532,2.5296,2.5296,2.5291,2.5289,2.5266,2.5261,2.5273,2.5245,2.5244,2.5252,2.5268,2.5231,2.5231,2.5274,2.5275,2.5277,2.5321,0,0,0,0,0,0,2.5336,2.5335,2.5343,2.5323,2.532,2.5329,2.5297,2.5291,2.5289,2.5285,2.5267,2.5263,2.5244,2.5252,2.5252,2.5267,2.5231,2.5272,2.5274,2.5277,2.5318,2.5324,2.5329,0,0,0,0,0,2.5337,2.5356,2.5344,2.5342,2.533,2.533,2.5328,2.5306,2.529,2.5298,2.5284,2.5263,2.5266,2.5253,2.5253,2.5268,2.5271,2.5274,2.5276,2.5315,2.5322,2.5329,0,0,0,0,0,0,2.5378,2.5353,2.5339,2.5352,2.5344,2.5323,2.5332,2.5315,2.531,2.5307,2.528,2.5276,2.5288,2.5279,2.5265,2.5289,2.5265,2.5268,2.5295,2.5302,2.5307,2.531,2.5231,0,0,0,0,0,2.5389,2.539,2.5368,2.5382,2.5379,2.5356,2.5355,2.534,2.5329,2.5325,2.5311,2.5302,2.5301,2.5301,2.5298,2.5316,2.5312,2.5326,2.5332,2.5337,2.534,2.5349,2.5356,2.5287,2.5287,2.5287,0,0,2.5411,2.5397,2.54,2.539,2.5382,2.5384,2.5353,2.5357,2.5359,2.5326,2.5333,2.5323,2.5311,2.5324,2.5329,2.5317,2.5358,2.534,2.5344,2.5344,2.5353,2.5359,2.5365,2.5289,2.5288,2.5288,0,0,2.5452,2.5442,2.5453,2.5445,2.5432,2.5417,2.542,2.5402,2.5394,2.5401,2.5376,2.5378,2.5376,2.5369,2.5365,2.5405,2.5387,2.5405,2.5435,2.5445,2.545,2.5455,2.547,2.5476,2.5408,2.5408,2.5408,0,2.5481,2.5484,2.5461,2.5467,2.5464,2.5434,2.5445,2.5438,2.5426,2.5424,2.541,2.5408,2.5398,2.541,2.542,2.5417,2.542,2.5407,2.5451,2.5456,2.546,2.5474,2.548,2.5411,2.541,2.541,2.541,0,2.5521,2.5524,2.5534,2.5523,2.5521,2.5529,2.5508,2.5509,2.5493,2.548,2.5488,2.5475,2.547,2.5471,2.5456,2.5481,2.5474,2.5456,2.5431,2.5469,2.5482,2.5487,2.5414,2.5413,2.5412,2.5412,0,0,2.5588,2.5564,2.5568,2.5563,2.5548,2.5549,2.5557,2.5552,2.5554,2.5546,2.5552,2.5552,2.5535,2.5531,2.5515,2.5523,2.5557,2.5504,2.5504,2.5515,2.5585,2.56,2.5606,2.5545,2.5545,2.5546,2.5587,0,2.5627,2.5638,2.5618,2.5634,2.5637,2.5609,2.5616,2.5607,2.5595,2.5596,2.5582,2.5583,2.5561,2.5558,2.5565,2.5552,2.5571,2.5548,2.5551,2.5551,2.5555,2.5613,2.5627,2.5666,2.5592,2.5592,2.5593,0,2.5674,2.5669,2.5686,2.567,2.567,2.5677,2.5671,2.5672,2.5662,2.5652,2.5648,2.5629,2.5636,2.5612,2.5622,2.5607,2.5606,2.56,2.5601,2.5601,2.5575,2.5615,2.5678,2.5684,2.5601,2.56,2.5599,0,2.5722,2.572,2.573,2.5726,2.5708,2.5713,2.5705,2.5694,2.5693,2.5688,2.5687,2.5683,2.5681,2.5679,2.5659,2.5644,2.5672,2.5646,2.5665,2.5665,2.5672,2.5672,2.5737,2.5671,2.5671,2.5671,2.5671,0,2.5768,2.578,2.5751,2.5758,2.577,2.5747,2.576,2.5749,2.574,2.5744,2.5719,2.5724,2.5697,2.5699,2.5684,2.5695,2.5694,2.5687,2.5683,2.569,2.5691,2.5689,2.5687,2.5672,2.5672,2.5672,2.5671,0,2.5825,2.5806,2.5815,2.5797,2.5793,2.5803,2.5787,2.5792,2.5779,2.5785,2.5785,2.5764,2.5765,2.5745,2.5742,2.5732,2.575,2.574,2.5753,2.5751,2.5771,2.577,2.5838,2.5846,2.5774,2.5775,2.5776,0,2.5856,2.5864,2.5847,2.5848,2.5842,2.5844,2.5842,2.582,2.582,2.5809,2.5816,2.5815,2.5813,2.5816,2.58,2.5798,2.5789,2.5813,2.5789,2.5795,2.5791,2.5791,2.5792,2.5819,2.5819,2.582,2.5821,0,2.5913,2.5904,2.5903,2.5899,2.5898,2.5894,2.5889,2.5891,2.5866,2.5867,2.5868,2.5867,2.5864,2.5863,2.5858,2.5851,2.5832,2.5829,2.5833,2.584,2.5848,2.5845,2.5768,2.5827,2.5827,2.5826,2.5826,2.5826,2.5958,2.5965,2.5954,2.5954,2.5947,2.5943,2.5947,2.5935,2.5935,2.5931,2.5918,2.5921,2.5911,2.5903,2.5897,2.59,2.5888,2.5894,2.5896,2.5898,2.5902,2.5847,2.5899,2.5898,2.5898,2.5898,2.5898,0,2.6015,2.6007,2.6007,2.6,2.6001,2.5983,2.5976,2.5978,2.5981,2.5973,2.5972,2.5973,2.5973,2.5958,2.5956,2.5961,2.5953,2.5962,2.5961,2.596,2.5912,2.5909,2.5969,2.5969,2.5969,2.5969,2.5969,2.5969,2.6045,2.6055,2.6045,2.6052,2.6043,2.6047,2.6044,2.604,2.6034,2.6037,2.6037,2.6027,2.6017,2.6014,2.6013,2.6009,2.601,2.6022,2.6014,2.597,2.5963,2.5957,2.5954,2.6022,2.6022,2.6062,2.6063,2.6063]}]]